TimeAKST,TemperatureF,Dew PointF,Humidity,Sea Level PressureIn,VisibilityMPH,Wind Direction,Wind SpeedMPH,Gust SpeedMPH,PrecipitationIn,Events,Conditions,WindDirDegrees,DateUTC
12:10 AM,-41.8,-9999,N/A,29.94,5.0,Calm,Calm,-,N/A,,Scattered Clouds,0,2012-12-17 09:10:00
12:18 AM,-41.8,-9999,N/A,29.95,5.0,Calm,Calm,-,N/A,,Mostly Cloudy,0,2012-12-17 09:18:00
12:28 AM,-41.8,-9999,N/A,29.94,2.5,Calm,Calm,-,0.00,Snow,Light Snow,0,2012-12-17 09:28:00
12:40 AM,-41.8,-9999,N/A,29.94,2.0,Calm,Calm,-,0.00,,Overcast,0,2012-12-17 09:40:00
12:53 AM,-41.1,-9999,N/A,30.01,2.0,Calm,Calm,-,0.00,,Overcast,0,2012-12-17 09:53:00
1:04 AM,-41.8,-9999,N/A,29.95,1.8,Calm,Calm,-,0.00,Snow,Light Snow,0,2012-12-17 10:04:00
1:13 AM,-41.8,-9999,N/A,29.94,2.5,Calm,Calm,-,0.00,,Overcast,0,2012-12-17 10:13:00
1:17 AM,-41.8,-9999,N/A,29.94,3.0,Calm,Calm,-,0.00,,Overcast,0,2012-12-17 10:17:00
1:53 AM,-42.0,-9999,N/A,30.01,3.0,Calm,Calm,-,0.00,,Overcast,0,2012-12-17 10:53:00
2:05 AM,-41.8,-9999,N/A,29.94,2.5,Calm,Calm,-,N/A,,Overcast,0,2012-12-17 11:05:00
2:44 AM,-43.6,-9999,N/A,29.94,3.0,Calm,Calm,-,N/A,,Overcast,0,2012-12-17 11:44:00
2:50 AM,-43.6,-9999,N/A,29.93,2.5,Calm,Calm,-,N/A,,Overcast,0,2012-12-17 11:50:00
3:12 AM,-43.6,-9999,N/A,29.93,3.0,Calm,Calm,-,N/A,,Overcast,0,2012-12-17 12:12:00
3:38 AM,-41.8,-9999,N/A,29.92,2.5,Calm,Calm,-,N/A,,Overcast,0,2012-12-17 12:38:00
3:53 AM,-42.0,-9999,N/A,29.98,3.0,Calm,Calm,-,N/A,,Overcast,0,2012-12-17 12:53:00
4:38 AM,-41.8,-9999,N/A,29.91,1.8,Calm,Calm,-,N/A,,Overcast,0,2012-12-17 13:38:00
4:53 AM,-42.0,-9999,N/A,29.97,2.0,Calm,Calm,-,N/A,,Overcast,0,2012-12-17 13:53:00
5:22 AM,-41.8,-9999,N/A,29.88,1.8,Calm,Calm,-,N/A,,Mostly Cloudy,0,2012-12-17 14:22:00
5:29 AM,-43.6,-9999,N/A,29.88,2.5,Calm,Calm,-,N/A,,Mostly Cloudy,0,2012-12-17 14:29:00
5:42 AM,-43.6,-9999,N/A,29.88,2.0,West,3.5,-,N/A,,Scattered Clouds,270,2012-12-17 14:42:00
5:53 AM,-43.1,-9999,N/A,29.94,3.0,Calm,Calm,-,N/A,,Scattered Clouds,0,2012-12-17 14:53:00
6:00 AM,-43.6,-9999,N/A,29.88,4.0,Calm,Calm,-,N/A,,Haze,0,2012-12-17 15:00:00
6:08 AM,-43.6,-9999,N/A,29.88,4.0,Calm,Calm,-,N/A,,Scattered Clouds,0,2012-12-17 15:08:00
6:53 AM,-43.1,-9999,N/A,29.92,4.0,Calm,Calm,-,N/A,,Clear,0,2012-12-17 15:53:00
7:16 AM,-41.8,-9999,N/A,29.85,4.0,Calm,Calm,-,N/A,,Scattered Clouds,0,2012-12-17 16:16:00
7:24 AM,-43.6,-9999,N/A,29.85,3.0,Calm,Calm,-,N/A,,Mostly Cloudy,0,2012-12-17 16:24:00
7:32 AM,-43.6,-9999,N/A,29.84,2.5,Calm,Calm,-,N/A,,Mostly Cloudy,0,2012-12-17 16:32:00
7:53 AM,-43.1,-9999,N/A,29.90,4.0,Calm,Calm,-,N/A,,Overcast,0,2012-12-17 16:53:00
8:03 AM,-43.6,-9999,N/A,29.83,1.8,Calm,Calm,-,N/A,,Overcast,0,2012-12-17 17:03:00
8:36 AM,-41.8,-9999,N/A,29.82,2.5,Calm,Calm,-,N/A,,Overcast,0,2012-12-17 17:36:00
8:48 AM,-41.8,-9999,N/A,29.83,3.0,West,3.5,-,N/A,,Scattered Clouds,260,2012-12-17 17:48:00
8:53 AM,-42.0,-9999,N/A,29.87,3.0,East,4.6,-,N/A,,Scattered Clouds,100,2012-12-17 17:53:00
9:02 AM,-41.8,-9999,N/A,29.81,1.8,East,3.5,-,N/A,,Scattered Clouds,80,2012-12-17 18:02:00
9:11 AM,-40.0,-9999,N/A,29.81,2.0,Calm,Calm,-,N/A,,Mostly Cloudy,0,2012-12-17 18:11:00
9:40 AM,-38.2,-9999,N/A,29.79,3.0,Calm,Calm,-,N/A,,Mostly Cloudy,0,2012-12-17 18:40:00
9:53 AM,-38.9,-9999,N/A,29.85,4.0,Calm,Calm,-,N/A,,Mostly Cloudy,0,2012-12-17 18:53:00
10:17 AM,-38.2,-9999,N/A,29.78,5.0,Calm,Calm,-,N/A,,Scattered Clouds,0,2012-12-17 19:17:00
10:53 AM,-36.9,-9999,N/A,29.83,3.0,Calm,Calm,-,N/A,,Overcast,0,2012-12-17 19:53:00
11:01 AM,-36.4,-9999,N/A,29.77,2.0,Calm,Calm,-,N/A,,Overcast,0,2012-12-17 20:01:00
11:08 AM,-36.4,-9999,N/A,29.76,1.5,Calm,Calm,-,N/A,,Overcast,0,2012-12-17 20:08:00
11:19 AM,-34.6,-9999,N/A,29.76,2.5,Calm,Calm,-,N/A,,Overcast,0,2012-12-17 20:19:00
11:33 AM,-34.6,-9999,N/A,29.75,1.8,Calm,Calm,-,N/A,,Overcast,0,2012-12-17 20:33:00
11:53 AM,-33.0,-9999,N/A,29.81,1.8,Calm,Calm,-,N/A,,Overcast,0,2012-12-17 20:53:00
12:21 PM,-32.8,-9999,N/A,29.74,3.0,Calm,Calm,-,N/A,,Overcast,0,2012-12-17 21:21:00
12:53 PM,-29.9,-9999,N/A,29.78,9.0,South,3.5,-,0.00,Snow,Light Snow,170,2012-12-17 21:53:00
3:50 PM,-25.6,-32.8,69,29.63,0.5,Calm,Calm,-,0.04,Snow,Snow,0,2012-12-18 00:50:00
3:53 PM,-26.0,-33.0,69,29.69,0.5,Calm,Calm,-,0.04,Snow,Snow,0,2012-12-18 00:53:00
4:19 PM,-25.6,-32.8,69,29.62,1.2,Calm,Calm,-,0.01,Snow,Light Snow,0,2012-12-18 01:19:00
4:53 PM,-25.1,-32.1,70,29.66,1.2,Calm,Calm,-,0.02,Snow,Light Snow,0,2012-12-18 01:53:00
5:15 PM,-25.6,-31.0,76,29.60,1.8,Calm,Calm,-,0.01,Snow,Light Snow,0,2012-12-18 02:15:00
5:25 PM,-25.6,-31.0,76,29.59,2.5,Calm,Calm,-,0.01,Snow,Light Snow,0,2012-12-18 02:25:00
5:37 PM,-25.6,-31.0,76,29.59,3.0,Calm,Calm,-,0.01,Snow,Light Snow,0,2012-12-18 02:37:00
5:45 PM,-23.8,-29.2,76,29.59,2.5,Calm,Calm,-,0.01,Snow,Light Snow,0,2012-12-18 02:45:00
5:53 PM,-24.0,-29.9,74,29.64,3.0,Calm,Calm,-,0.01,Snow,Light Snow,0,2012-12-18 02:53:00
6:53 PM,-23.1,-29.0,74,29.61,3.0,Calm,Calm,-,0.00,Snow,Light Snow,0,2012-12-18 03:53:00
7:53 PM,-22.0,-27.9,74,29.59,2.5,Calm,Calm,-,0.00,Snow,Light Snow,0,2012-12-18 04:53:00
8:42 PM,-20.2,-27.4,69,29.52,3.0,Calm,Calm,-,0.00,Snow,Light Snow,0,2012-12-18 05:42:00
8:53 PM,-20.9,-27.0,73,29.58,3.0,Calm,Calm,-,0.00,Snow,Light Snow,0,2012-12-18 05:53:00
9:02 PM,-20.2,-25.6,76,29.52,2.5,Calm,Calm,-,0.00,Snow,Light Snow,0,2012-12-18 06:02:00
9:17 PM,-20.2,-25.6,76,29.51,2.5,Calm,Calm,-,0.00,Snow,Light Snow,0,2012-12-18 06:17:00
9:53 PM,-20.0,-26.0,74,29.55,1.8,Calm,Calm,-,0.00,Snow,Light Snow,0,2012-12-18 06:53:00
10:00 PM,-18.4,-25.6,70,29.50,2.0,Calm,Calm,-,0.00,Snow,Light Snow,0,2012-12-18 07:00:00
10:51 PM,-18.4,-25.6,70,29.48,1.8,Calm,Calm,-,0.00,Snow,Light Snow,0,2012-12-18 07:51:00
11:53 PM,-18.0,-24.0,74,29.52,1.2,Calm,Calm,-,0.00,Snow,Light Snow,0,2012-12-18 08:53:00